• In United Kingdom
  • List of Countries
  • For 7 days
  • Water Temperature
  • Satellite Maps
  • Weather Map
  • Weather Widgets
  • user-avatar
    Login

    Hourly Weather Ashtarak

    Today, 21 November, Tuesday

    Time Temperature Precipitation Wind Pressure Humidity
    00:00 +7°C° 0 mm 2 mps 654 mmHg 67%
    01:00 +6°C° 0 mm 2 mps 654 mmHg 68%
    02:00 +6°C° 0 mm 2 mps 653 mmHg 68%
    03:00 +7°C° 0 mm 2 mps 652 mmHg 70%
    04:00 +7°C° 0 mm 2 mps 652 mmHg 70%
    05:00 +7°C° 0 mm 2 mps 652 mmHg 71%
    06:00 +6°C° 0 mm 2 mps 652 mmHg 71%
    07:00 +7°C° 0.1 mm 3 mps 652 mmHg 68%
    08:00 +8°C° 0.1 mm 3 mps 652 mmHg 65%
    09:00 +9°C° 0.1 mm 3 mps 652 mmHg 63%
    10:00 +10°C° 0.2 mm 3 mps 652 mmHg 61%
    11:00 +11°C° 0.2 mm 4 mps 652 mmHg 59%
    12:00 +11°C° 0.2 mm 4 mps 652 mmHg 57%
    13:00 +11°C° 0.1 mm 4 mps 651 mmHg 58%
    14:00 +11°C° 0.1 mm 4 mps 651 mmHg 59%
    15:00 +10°C° 0.1 mm 5 mps 651 mmHg 60%
    16:00 +10°C° 0 mm 4 mps 650 mmHg 65%
    17:00 +9°C° 0 mm 3 mps 650 mmHg 71%
    18:00 +8°C° 0 mm 3 mps 649 mmHg 76%
    19:00 +8°C° 0 mm 3 mps 649 mmHg 77%
    20:00 +8°C° 0 mm 3 mps 649 mmHg 78%
    21:00 +7°C° 0 mm 3 mps 648 mmHg 79%
    22:00 +7°C° 0.1 mm 3 mps 649 mmHg 79%
    23:00 +7°C° 0.1 mm 3 mps 649 mmHg 80%

    Tomorrow, 22 November, Wednesday

    Time Temperature Precipitation Wind Pressure Humidity
    00:00 +7°C° 0.1 mm 3 mps 649 mmHg 81%
    01:00 +7°C° 0.5 mm 2 mps 649 mmHg 81%
    02:00 +7°C° 0.5 mm 2 mps 649 mmHg 82%
    03:00 +7°C° 0.5 mm 2 mps 649 mmHg 83%
    04:00 +6°C° 1.2 mm 2 mps 649 mmHg 84%
    05:00 +6°C° 1.2 mm 2 mps 649 mmHg 84%
    06:00 +5°C° 1.2 mm 2 mps 649 mmHg 85%
    07:00 +5°C° 1.1 mm 2 mps 649 mmHg 85%
    08:00 +5°C° 1.1 mm 2 mps 649 mmHg 84%
    09:00 +5°C° 1.1 mm 2 mps 649 mmHg 84%
    10:00 +5°C° 0.9 mm 2 mps 649 mmHg 82%
    11:00 +5°C° 0.9 mm 2 mps 648 mmHg 81%
    12:00 +5°C° 0.9 mm 2 mps 648 mmHg 80%
    13:00 +5°C° 0.5 mm 2 mps 648 mmHg 78%
    14:00 +5°C° 0.5 mm 2 mps 649 mmHg 76%
    15:00 +5°C° 0.5 mm 2 mps 649 mmHg 75%
    16:00 +4°C° 0.3 mm 2 mps 649 mmHg 76%
    17:00 +3°C° 0.3 mm 2 mps 650 mmHg 76%
    18:00 +3°C° 0.3 mm 2 mps 650 mmHg 77%
    19:00 +2°C° 0.3 mm 2 mps 650 mmHg 78%
    20:00 +2°C° 0.3 mm 2 mps 651 mmHg 78%
    21:00 0°C° 0.3 mm 3 mps 651 mmHg 79%
    22:00 +1°C° 0.1 mm 2 mps 651 mmHg 79%
    23:00 -1°C° 0.1 mm 2 mps 651 mmHg 78%

    Day after tomorrow, 23 November, Thursday

    Time Temperature Precipitation Wind Pressure Humidity
    00:00 -1°C° 0.1 mm 2 mps 652 mmHg 78%
    01:00 -1°C° 0.1 mm 2 mps 652 mmHg 77%
    02:00 -2°C° 0.1 mm 2 mps 652 mmHg 77%
    03:00 0°C° 0.1 mm 1 mps 652 mmHg 76%
    04:00 -1°C° 0 mm 1 mps 652 mmHg 75%
    05:00 -2°C° 0 mm 1 mps 652 mmHg 75%
    06:00 -2°C° 0 mm 1 mps 652 mmHg 75%
    07:00 -4°C° 0 mm 2 mps 653 mmHg 73%
    08:00 -3°C° 0 mm 2 mps 653 mmHg 71%
    09:00 -2°C° 0 mm 2 mps 653 mmHg 69%
    10:00 -2°C° 0 mm 3 mps 653 mmHg 66%
    11:00 -1°C° 0 mm 3 mps 653 mmHg 64%
    12:00 -1°C° 0 mm 4 mps 653 mmHg 61%
    13:00 -1°C° 0.1 mm 4 mps 653 mmHg 61%
    14:00 -1°C° 0.1 mm 4 mps 652 mmHg 61%
    15:00 -1°C° 0.1 mm 4 mps 652 mmHg 60%
    16:00 -1°C° 0.1 mm 3 mps 653 mmHg 63%
    17:00 -2°C° 0.1 mm 3 mps 653 mmHg 66%
    18:00 -4°C° 0.1 mm 3 mps 653 mmHg 68%
    19:00 -3°C° 0.1 mm 2 mps 653 mmHg 69%
    20:00 -3°C° 0.1 mm 2 mps 653 mmHg 71%
    21:00 -3°C° 0.1 mm 2 mps 654 mmHg 72%
    22:00 -3°C° 0.1 mm 2 mps 654 mmHg 73%
    23:00 -1°C° 0.1 mm 1 mps 654 mmHg 74%

    24 November, Friday

    Time Temperature Precipitation Wind Pressure Humidity
    00:00 -1°C° 0.1 mm 1 mps 654 mmHg 75%
    01:00 -1°C° 0.2 mm 1 mps 654 mmHg 76%
    02:00 -1°C° 0.2 mm 1 mps 654 mmHg 76%
    03:00 -1°C° 0.2 mm 1 mps 654 mmHg 77%
    04:00 -2°C° 0.1 mm 1 mps 654 mmHg 77%
    05:00 -2°C° 0.1 mm 1 mps 654 mmHg 77%
    06:00 -2°C° 0.1 mm 1 mps 655 mmHg 77%
    07:00 -2°C° 0 mm 1 mps 655 mmHg 75%
    08:00 -1°C° 0 mm 1 mps 656 mmHg 73%
    09:00 -1°C° 0 mm 1 mps 656 mmHg 71%
    10:00 0°C° 0 mm 1 mps 656 mmHg 68%
    11:00 0°C° 0 mm 1 mps 656 mmHg 64%
    12:00 -1°C° 0 mm 2 mps 656 mmHg 60%
    13:00 -1°C° 0 mm 2 mps 656 mmHg 61%
    14:00 +1°C° 0 mm 1 mps 656 mmHg 61%
    15:00 +1°C° 0 mm 1 mps 656 mmHg 62%
    16:00 0°C° 0 mm 1 mps 656 mmHg 64%
    17:00 -1°C° 0 mm 1 mps 656 mmHg 66%
    18:00 -2°C° 0 mm 1 mps 656 mmHg 68%
    19:00 -2°C° 0.1 mm 1 mps 657 mmHg 68%
    20:00 -2°C° 0.1 mm 1 mps 657 mmHg 69%
    21:00 -3°C° 0.1 mm 1 mps 658 mmHg 69%
    22:00 -3°C° 0.1 mm 1 mps 658 mmHg 70%
    23:00 -3°C° 0.1 mm 1 mps 658 mmHg 71%

    25 November, Saturday

    Time Temperature Precipitation Wind Pressure Humidity
    00:00 -3°C° 0.1 mm 1 mps 658 mmHg 72%
    01:00 -4°C° 0.1 mm 1 mps 658 mmHg 72%
    02:00 -4°C° 0.1 mm 1 mps 658 mmHg 73%
    03:00 -6°C° 0.1 mm 1 mps 658 mmHg 73%
    04:00 -6°C° 0.1 mm 1 mps 659 mmHg 74%
    05:00 -6°C° 0.1 mm 1 mps 659 mmHg 74%
    06:00 -6°C° 0.1 mm 1 mps 659 mmHg 75%
    07:00 -6°C° 0.1 mm 1 mps 660 mmHg 73%
    08:00 -4°C° 0.1 mm 1 mps 660 mmHg 71%
    09:00 -3°C° 0.1 mm 1 mps 661 mmHg 70%
    10:00 -3°C° 0.1 mm 1 mps 661 mmHg 68%
    11:00 -4°C° 0.1 mm 2 mps 661 mmHg 66%
    12:00 -3°C° 0.1 mm 2 mps 661 mmHg 64%
    13:00 -3°C° 0.1 mm 2 mps 661 mmHg 64%
    14:00 -1°C° 0.1 mm 1 mps 662 mmHg 63%
    15:00 -1°C° 0.1 mm 1 mps 662 mmHg 63%
    16:00 -2°C° 0 mm 1 mps 662 mmHg 64%
    17:00 -4°C° 0 mm 1 mps 662 mmHg 66%
    18:00 -6°C° 0 mm 1 mps 663 mmHg 68%
    19:00 -7°C° 0 mm 1 mps 663 mmHg 68%
    20:00 -7°C° 0 mm 1 mps 663 mmHg 67%
    21:00 -7°C° 0 mm 1 mps 664 mmHg 67%
    22:00 -7°C° 0 mm 1 mps 664 mmHg 66%
    23:00 -7°C° 0 mm 1 mps 664 mmHg 66%

    26 November, Sunday

    Time Temperature Precipitation Wind Pressure Humidity
    00:00 -8°C° 0 mm 1 mps 664 mmHg 66%
    01:00 -8°C° 0 mm 1 mps 664 mmHg 65%
    02:00 -8°C° 0 mm 1 mps 664 mmHg 64%
    03:00 -8°C° 0 mm 1 mps 664 mmHg 63%
    04:00 -8°C° 0 mm 1 mps 663 mmHg 62%
    05:00 -8°C° 0 mm 1 mps 663 mmHg 61%
    06:00 -8°C° 0 mm 1 mps 663 mmHg 60%
    07:00 -6°C° 0 mm 1 mps 663 mmHg 59%
    08:00 -4°C° 0 mm 1 mps 664 mmHg 58%
    09:00 -3°C° 0 mm 1 mps 664 mmHg 57%
    10:00 -4°C° 0 mm 2 mps 664 mmHg 55%
    11:00 -2°C° 0 mm 2 mps 663 mmHg 53%
    12:00 -1°C° 0 mm 2 mps 663 mmHg 51%
    13:00 -1°C° 0 mm 2 mps 663 mmHg 51%
    14:00 -1°C° 0 mm 2 mps 662 mmHg 51%
    15:00 +1°C° 0 mm 1 mps 662 mmHg 52%
    16:00 0°C° 0 mm 1 mps 662 mmHg 51%
    17:00 -2°C° 0 mm 1 mps 662 mmHg 51%
    18:00 -3°C° 0 mm 1 mps 662 mmHg 51%
    19:00 -3°C° 0 mm 1 mps 662 mmHg 50%
    20:00 -4°C° 0 mm 1 mps 662 mmHg 49%
    21:00 -4°C° 0 mm 1 mps 662 mmHg 49%
    22:00 -4°C° 0 mm 1 mps 662 mmHg 49%
    23:00 -4°C° 0 mm 1 mps 662 mmHg 48%
    Show more